sat.trackr.live / text

‹ back to catalog

2023-189B

NORAD 58503 · 2023-189B

PAYLOAD ACTIVE UNKNOWN

§ Identity

Operator
Country
PRC
Launch date
2023-12-04
Launch site
JSC
Launch vehicle
Mass (kg)
RCS (m²)

External: N2YO · Heavens-Above · Gunter

§ Orbital elements

Epoch: 2026-06-06T08:47:21.318144Z

Period
88.41 min
Inclination
97.3625°
Eccentricity
0.0011765
Mean motion
16.28725951 rev/d
Perigee alt
188.2 km
Apogee alt
203.7 km
Semi-major
6,574.1 km
B*
1.1779e-3
RAAN
197.5486°
Arg perigee
254.3472°
Mean anomaly
105.6523°
Rev number
14,108

§ Raw data

2023-189B1 58503U 23189B   26157.36621896  .04635759  24647-5  11779-2 0  99902 58503  97.3625 197.5486 0011765 254.3472 105.6523 16.28725951141084

JSON: /api/v1/satellites/58503 · /tle

For live sub-satellite position, see the globe view (requires WebGL).

§ Visibility from observer

Set your observer location to see the next 7 days of passes ≥ 10°. The values pass through the URL so the page stays shareable.

No JS? Fill the form by hand. The geolocation button needs JavaScript.